Time,TemperatureF,DewpointF,PressureIn,WindDirection,WindDirectionDegrees,WindSpeedMPH,WindSpeedGustMPH,Humidity,HourlyPrecipIn,Conditions,Clouds,dailyrainin,SoftwareType,DateUTC
2013-02-17 03:55:00,29.5,-2.0,29.50,NW,326,10.0,10.0,25,0.00,,---,0.00,VWS V14.01,2013-02-17 08:55:00,
2013-02-17 03:56:00,29.5,-2.0,29.50,NNW,342,4.3,10.0,25,0.00,,---,0.00,VWS V14.01,2013-02-17 08:56:00,
2013-02-17 03:57:00,29.5,-2.0,29.50,NNW,341,14.0,14.7,25,0.00,,---,0.00,VWS V14.01,2013-02-17 08:57:00,
2013-02-17 03:58:00,29.5,-2.0,29.50,NW,308,8.6,14.7,25,0.00,,---,0.00,VWS V14.01,2013-02-17 08:58:00,
2013-02-17 04:03:00,29.5,-2.0,29.50,NW,308,10.0,12.9,25,0.00,,---,0.00,VWS V14.01,2013-02-17 09:03:00,
2013-02-17 04:08:00,29.3,-2.2,29.50,NNW,333,9.3,10.0,25,0.00,,---,0.00,VWS V14.01,2013-02-17 09:08:00,
2013-02-17 04:14:00,29.3,-2.2,29.50,North,1,11.5,19.7,25,0.00,,---,0.00,VWS V14.01,2013-02-17 09:14:00,
2013-02-17 04:20:00,29.3,-2.2,29.50,NNW,346,7.9,14.0,25,0.00,,---,0.00,VWS V14.01,2013-02-17 09:20:00,
2013-02-17 04:25:00,29.3,-2.2,29.50,NNW,341,5.0,9.3,25,0.00,,---,0.00,VWS V14.01,2013-02-17 09:25:00,
2013-02-17 04:31:00,29.3,-2.2,29.50,NNW,335,9.3,9.3,25,0.00,,---,0.00,VWS V14.01,2013-02-17 09:31:00,
2013-02-17 04:37:00,29.3,-2.2,29.50,NNW,333,5.0,10.0,25,0.00,,---,0.00,VWS V14.01,2013-02-17 09:37:00,
2013-02-17 04:42:00,29.1,-2.3,29.50,NNW,342,3.6,17.5,25,0.00,,---,0.00,VWS V14.01,2013-02-17 09:42:00,
2013-02-17 04:47:00,29.1,-2.3,29.50,North,353,13.2,14.0,25,0.00,,---,0.00,VWS V14.01,2013-02-17 09:47:00,
2013-02-17 04:53:00,29.1,-2.3,29.50,NNW,331,15.4,15.4,25,0.00,,---,0.00,VWS V14.01,2013-02-17 09:53:00,
2013-02-17 04:59:00,29.1,-2.3,29.50,NNW,335,21.1,21.1,25,0.00,,---,0.00,VWS V14.01,2013-02-17 09:59:00,
2013-02-17 05:04:00,29.1,-2.3,29.47,NNW,342,10.0,12.9,25,0.00,,---,0.00,VWS V14.01,2013-02-17 10:04:00,
2013-02-17 05:10:00,29.1,-2.3,29.47,West,276,10.7,10.7,25,0.00,,---,0.00,VWS V14.01,2013-02-17 10:10:00,
2013-02-17 05:15:00,29.1,-2.3,29.50,WNW,300,9.3,9.3,25,0.00,,---,0.00,VWS V14.01,2013-02-17 10:15:00,
2013-02-17 05:21:00,29.1,-2.3,29.50,WNW,297,6.4,12.2,25,0.00,,---,0.00,VWS V14.01,2013-02-17 10:21:00,
2013-02-17 05:26:00,28.9,-2.5,29.50,NW,315,12.9,12.9,25,0.00,,---,0.00,VWS V14.01,2013-02-17 10:26:00,
2013-02-17 05:32:00,28.9,-4.2,29.50,NW,315,24.0,24.0,23,0.00,,---,0.00,VWS V14.01,2013-02-17 10:32:00,
2013-02-17 05:38:00,28.9,-4.2,29.50,NW,315,4.3,8.6,23,0.00,,---,0.00,VWS V14.01,2013-02-17 10:38:00,
2013-02-17 05:43:00,28.9,-4.2,29.50,NW,319,10.0,10.0,23,0.00,,---,0.00,VWS V14.01,2013-02-17 10:43:00,
2013-02-17 05:49:00,28.9,-4.2,29.50,NNW,341,5.7,9.3,23,0.00,,---,0.00,VWS V14.01,2013-02-17 10:49:00,
2013-02-17 05:54:00,28.8,-4.3,29.50,NW,323,5.7,13.2,23,0.00,,---,0.00,VWS V14.01,2013-02-17 10:54:00,
2013-02-17 05:59:00,28.8,-4.3,29.50,NW,325,14.0,24.0,23,0.00,,---,0.00,VWS V14.01,2013-02-17 10:59:00,
2013-02-17 06:04:00,28.8,-4.3,29.50,North,0,22.5,22.5,23,0.00,,---,0.00,VWS V14.01,2013-02-17 11:04:00,
2013-02-17 06:09:00,28.6,-4.5,29.50,NW,319,5.0,16.1,23,0.00,,---,0.00,VWS V14.01,2013-02-17 11:09:00,
2013-02-17 06:14:00,28.6,-4.5,29.50,NW,325,9.3,19.7,23,0.00,,---,0.00,VWS V14.01,2013-02-17 11:14:00,
2013-02-17 06:20:00,28.6,-4.5,29.47,North,353,12.9,13.2,23,0.00,,---,0.00,VWS V14.01,2013-02-17 11:20:00,
2013-02-17 06:25:00,28.6,-4.5,29.47,North,353,5.7,14.0,23,0.00,,---,0.00,VWS V14.01,2013-02-17 11:25:00,
2013-02-17 06:31:00,28.4,-4.7,29.50,NNW,338,15.4,17.5,23,0.00,,---,0.00,VWS V14.01,2013-02-17 11:31:00,
2013-02-17 06:37:00,28.4,-4.7,29.50,NW,312,13.2,13.2,23,0.00,,---,0.00,VWS V14.01,2013-02-17 11:37:00,
2013-02-17 06:43:00,28.4,-4.7,29.50,NNW,339,15.4,27.9,23,0.00,,---,0.00,VWS V14.01,2013-02-17 11:43:00,
2013-02-17 06:48:00,28.2,-4.8,29.50,NW,313,8.6,16.1,23,0.00,,---,0.00,VWS V14.01,2013-02-17 11:48:00,
2013-02-17 06:54:00,28.2,-4.8,29.50,North,357,26.8,26.8,23,0.00,,---,0.00,VWS V14.01,2013-02-17 11:54:00,
2013-02-17 06:59:00,28.2,-4.8,29.50,NW,308,21.1,21.1,23,0.00,,---,0.00,VWS V14.01,2013-02-17 11:59:00,
2013-02-17 07:05:00,28.0,-5.0,29.50,NW,308,5.7,12.2,23,0.00,,---,0.00,VWS V14.01,2013-02-17 12:05:00,
2013-02-17 07:11:00,28.0,-5.0,29.50,WNW,287,13.2,21.1,23,0.00,,---,0.00,VWS V14.01,2013-02-17 12:11:00,
2013-02-17 07:17:00,28.0,-5.0,29.50,West,279,21.1,21.1,23,0.00,,---,0.00,VWS V14.01,2013-02-17 12:17:00,
2013-02-17 07:23:00,27.9,-5.1,29.50,NW,325,13.2,17.5,23,0.00,,---,0.00,VWS V14.01,2013-02-17 12:23:00,
2013-02-17 07:28:00,27.9,-5.1,29.50,NW,309,9.3,13.2,23,0.00,,---,0.00,VWS V14.01,2013-02-17 12:28:00,
2013-02-17 07:34:00,27.9,-5.1,29.50,WNW,294,9.3,13.2,23,0.00,,---,0.00,VWS V14.01,2013-02-17 12:34:00,
2013-02-17 07:40:00,28.0,-5.0,29.50,NW,315,11.5,17.5,23,0.00,,---,0.00,VWS V14.01,2013-02-17 12:40:00,
2013-02-17 07:45:00,28.0,-5.0,29.50,NNW,341,10.0,10.0,23,0.00,,---,0.00,VWS V14.01,2013-02-17 12:45:00,
2013-02-17 07:51:00,28.0,-5.0,29.50,WNW,295,9.3,24.0,23,0.00,,---,0.00,VWS V14.01,2013-02-17 12:51:00,
2013-02-17 07:56:00,28.0,-5.0,29.50,NW,324,13.2,13.2,23,0.00,,---,0.00,VWS V14.01,2013-02-17 12:56:00,
2013-02-17 08:02:00,28.0,-5.0,29.50,NW,312,12.2,16.8,23,0.00,,---,0.00,VWS V14.01,2013-02-17 13:02:00,
2013-02-17 08:07:00,28.2,-4.8,29.50,West,269,13.2,13.2,23,0.00,,---,0.00,VWS V14.01,2013-02-17 13:07:00,
2013-02-17 08:12:00,28.2,-4.8,29.50,NW,305,12.9,12.9,23,0.00,,---,0.00,VWS V14.01,2013-02-17 13:12:00,
2013-02-17 08:18:00,28.2,-4.8,29.50,WNW,293,6.4,14.7,23,0.00,,---,0.00,VWS V14.01,2013-02-17 13:18:00,
2013-02-17 08:23:00,28.4,-4.7,29.50,NW,305,19.7,19.7,23,0.00,,---,0.00,VWS V14.01,2013-02-17 13:23:00,
2013-02-17 08:29:00,28.4,-4.7,29.50,WNW,291,12.9,24.7,23,0.00,,---,0.00,VWS V14.01,2013-02-17 13:29:00,
2013-02-17 08:34:00,28.4,-4.7,29.50,WSW,242,16.1,16.8,23,0.00,,---,0.00,VWS V14.01,2013-02-17 13:34:00,
2013-02-17 08:40:00,28.6,-4.5,29.50,NNW,342,22.5,25.4,23,0.00,,---,0.00,VWS V14.01,2013-02-17 13:40:00,
2013-02-17 08:46:00,28.6,-4.5,29.50,WNW,286,26.8,26.8,23,0.00,,---,0.00,VWS V14.01,2013-02-17 13:46:00,
2013-02-17 08:51:00,28.6,-4.5,29.50,WNW,300,11.5,17.5,23,0.00,,---,0.00,VWS V14.01,2013-02-17 13:51:00,
2013-02-17 08:57:00,28.6,-4.5,29.50,NW,309,13.2,23.3,23,0.00,,---,0.00,VWS V14.01,2013-02-17 13:57:00,
2013-02-17 09:03:00,28.8,-4.3,29.50,WSW,251,12.9,13.2,23,0.00,,---,0.00,VWS V14.01,2013-02-17 14:03:00,
2013-02-17 09:08:00,28.9,-4.2,29.50,West,270,10.0,14.0,23,0.00,,---,0.00,VWS V14.01,2013-02-17 14:08:00,
2013-02-17 09:14:00,29.1,-4.1,29.50,West,279,16.1,21.1,23,0.00,,---,0.00,VWS V14.01,2013-02-17 14:14:00,
2013-02-17 09:19:00,29.1,-4.1,29.50,West,261,18.3,18.3,23,0.00,,---,0.00,VWS V14.01,2013-02-17 14:19:00,
2013-02-17 09:25:00,29.3,-3.9,29.50,NW,312,12.2,17.5,23,0.00,,---,0.00,VWS V14.01,2013-02-17 14:25:00,
2013-02-17 09:31:00,29.3,-3.9,29.50,NW,308,10.0,12.9,23,0.00,,---,0.00,VWS V14.01,2013-02-17 14:31:00,
2013-02-17 09:36:00,29.3,-3.9,29.50,NW,308,10.0,10.0,23,0.00,,---,0.00,VWS V14.01,2013-02-17 14:36:00,
2013-02-17 09:41:00,29.3,-3.9,29.50,NNW,348,9.3,9.3,23,0.00,,---,0.00,VWS V14.01,2013-02-17 14:41:00,
2013-02-17 09:46:00,29.3,-3.9,29.50,NNW,348,9.3,9.3,23,0.00,,---,0.00,VWS V14.01,2013-02-17 14:46:00,
2013-02-17 09:52:00,29.3,-3.9,29.50,WNW,295,12.9,12.9,23,0.00,,---,0.00,VWS V14.01,2013-02-17 14:52:00,
2013-02-17 09:57:00,29.3,-3.9,29.50,WNW,295,12.9,12.9,23,0.00,,---,0.00,VWS V14.01,2013-02-17 14:57:00,
2013-02-17 10:03:00,29.3,-3.9,29.50,WNW,295,12.9,12.9,23,0.00,,---,0.00,VWS V14.01,2013-02-17 15:03:00,
2013-02-17 10:08:00,29.3,-3.9,29.50,West,270,20.4,20.4,23,0.00,,---,0.00,VWS V14.01,2013-02-17 15:08:00,
2013-02-17 10:13:00,29.3,-3.9,29.50,West,270,20.4,20.4,23,0.00,,---,0.00,VWS V14.01,2013-02-17 15:13:00,
2013-02-17 10:19:00,29.3,-3.9,29.50,West,270,20.4,20.4,23,0.00,,---,0.00,VWS V14.01,2013-02-17 15:19:00,
2013-02-17 10:25:00,29.3,-3.9,29.50,West,270,20.4,20.4,23,0.00,,---,0.00,VWS V14.01,2013-02-17 15:25:00,
2013-02-17 10:31:00,29.3,-3.9,29.50,West,270,20.4,20.4,23,0.00,,---,0.00,VWS V14.01,2013-02-17 15:31:00,
2013-02-17 10:36:00,29.3,-3.9,29.50,West,270,20.4,20.4,23,0.00,,---,0.00,VWS V14.01,2013-02-17 15:36:00,
2013-02-17 10:42:00,29.3,-3.9,29.50,West,270,20.4,20.4,23,0.00,,---,0.00,VWS V14.01,2013-02-17 15:42:00,
2013-02-17 10:47:00,29.3,-3.9,29.50,West,270,20.4,20.4,23,0.00,,---,0.00,VWS V14.01,2013-02-17 15:47:00,
2013-02-17 10:53:00,29.3,-3.9,29.50,West,270,20.4,20.4,23,0.00,,---,0.00,VWS V14.01,2013-02-17 15:53:00,
2013-02-17 10:58:00,29.3,-3.9,29.50,West,270,20.4,20.4,23,0.00,,---,0.00,VWS V14.01,2013-02-17 15:58:00,
2013-02-17 11:03:00,29.3,-3.9,29.50,West,270,20.4,20.4,23,0.00,,---,0.00,VWS V14.01,2013-02-17 16:03:00,
2013-02-17 11:09:00,29.3,-3.9,29.50,West,270,20.4,20.4,23,0.00,,---,0.00,VWS V14.01,2013-02-17 16:09:00,
2013-02-17 11:15:00,29.3,-3.9,29.50,SSW,203,37.9,37.9,23,0.00,,---,0.00,VWS V14.01,2013-02-17 16:15:00,
2013-02-17 11:20:00,29.3,-3.9,29.50,SSW,203,37.9,37.9,23,0.00,,---,0.00,VWS V14.01,2013-02-17 16:20:00,
2013-02-17 11:25:00,29.3,-3.9,29.50,WNW,292,21.1,37.9,23,0.00,,---,0.00,VWS V14.01,2013-02-17 16:25:00,
2013-02-17 11:31:00,29.3,-3.9,29.50,WNW,292,21.1,21.1,23,0.00,,---,0.00,VWS V14.01,2013-02-17 16:31:00,
2013-02-17 11:37:00,29.3,-3.9,29.53,WNW,286,13.2,13.2,23,0.00,,---,0.00,VWS V14.01,2013-02-17 16:37:00,
2013-02-17 11:42:00,29.3,-3.9,29.53,WNW,292,16.8,16.8,23,0.00,,---,0.00,VWS V14.01,2013-02-17 16:42:00,
2013-02-17 11:48:00,29.3,-3.9,29.53,NW,315,15.4,15.4,23,0.00,,---,0.00,VWS V14.01,2013-02-17 16:48:00,
2013-02-17 11:53:00,29.3,-3.9,29.53,NW,319,13.2,13.2,23,0.00,,---,0.00,VWS V14.01,2013-02-17 16:53:00,
2013-02-17 11:58:00,29.3,-3.9,29.53,NW,319,13.2,13.2,23,0.00,,---,0.00,VWS V14.01,2013-02-17 16:58:00,
2013-02-17 12:03:00,29.3,-3.9,29.53,NW,319,13.2,13.2,23,0.00,,---,0.00,VWS V14.01,2013-02-17 17:03:00,
2013-02-17 12:09:00,29.3,-3.9,29.53,NW,320,17.5,17.5,23,0.00,,---,0.00,VWS V14.01,2013-02-17 17:09:00,
2013-02-17 12:14:00,29.3,-3.9,29.53,NW,320,17.5,17.5,23,0.00,,---,0.00,VWS V14.01,2013-02-17 17:14:00,
2013-02-17 12:20:00,29.3,-3.9,29.53,NW,304,16.1,16.1,23,0.00,,---,0.00,VWS V14.01,2013-02-17 17:20:00,
2013-02-17 12:25:00,29.3,-3.9,29.53,NNW,327,9.3,9.3,23,0.00,,---,0.00,VWS V14.01,2013-02-17 17:25:00,
2013-02-17 12:31:00,29.3,-3.9,29.53,NNW,327,9.3,9.3,23,0.00,,---,0.00,VWS V14.01,2013-02-17 17:31:00,
2013-02-17 12:36:00,29.3,-3.9,29.53,WNW,291,10.0,10.0,23,0.00,,---,0.00,VWS V14.01,2013-02-17 17:36:00,
2013-02-17 12:41:00,29.3,-3.9,29.53,NNW,330,24.7,24.7,23,0.00,,---,0.00,VWS V14.01,2013-02-17 17:41:00,
2013-02-17 12:47:00,29.3,-3.9,29.53,NNW,346,26.8,26.8,23,0.00,,---,0.00,VWS V14.01,2013-02-17 17:47:00,
2013-02-17 12:52:00,29.3,-3.9,29.53,WNW,289,10.0,10.0,23,0.00,,---,0.00,VWS V14.01,2013-02-17 17:52:00,
2013-02-17 12:57:00,29.3,-3.9,29.53,WNW,301,16.8,16.8,23,0.00,,---,0.00,VWS V14.01,2013-02-17 17:57:00,
2013-02-17 13:02:00,29.3,-3.9,29.53,WNW,301,16.8,16.8,23,0.00,,---,0.00,VWS V14.01,2013-02-17 18:02:00,
2013-02-17 13:07:00,29.3,-3.9,29.53,West,280,24.0,24.0,23,0.00,,---,0.00,VWS V14.01,2013-02-17 18:07:00,
2013-02-17 13:13:00,29.3,-3.9,29.53,West,280,24.0,24.0,23,0.00,,---,0.00,VWS V14.01,2013-02-17 18:13:00,
2013-02-17 13:18:00,29.3,-3.9,29.53,WNW,288,20.4,20.4,23,0.00,,---,0.00,VWS V14.01,2013-02-17 18:18:00,
2013-02-17 13:23:00,29.3,-3.9,29.53,WNW,288,20.4,20.4,23,0.00,,---,0.00,VWS V14.01,2013-02-17 18:23:00,
2013-02-17 13:29:00,29.3,-3.9,29.53,West,263,18.3,18.3,23,0.00,,---,0.00,VWS V14.01,2013-02-17 18:29:00,
2013-02-17 13:34:00,29.3,-3.9,29.53,WSW,252,20.4,20.4,23,0.00,,---,0.00,VWS V14.01,2013-02-17 18:34:00,
2013-02-17 13:39:00,29.3,-3.9,29.53,WNW,287,10.7,10.7,23,0.00,,---,0.00,VWS V14.01,2013-02-17 18:39:00,
2013-02-17 13:44:00,29.3,-3.9,29.53,NNW,343,14.0,14.0,23,0.00,,---,0.00,VWS V14.01,2013-02-17 18:44:00,
2013-02-17 13:50:00,29.3,-3.9,29.53,NNE,15,9.3,9.3,23,0.00,,---,0.00,VWS V14.01,2013-02-17 18:50:00,
2013-02-17 13:55:00,29.3,-3.9,29.53,NNE,15,9.3,9.3,23,0.00,,---,0.00,VWS V14.01,2013-02-17 18:55:00,
2013-02-17 14:01:00,29.3,-3.9,29.53,NNE,15,9.3,9.3,23,0.00,,---,0.00,VWS V14.01,2013-02-17 19:01:00,
2013-02-17 14:06:00,29.3,-3.9,29.53,NNE,15,9.3,9.3,23,0.00,,---,0.00,VWS V14.01,2013-02-17 19:06:00,
2013-02-17 14:11:00,29.3,-3.9,29.53,NNW,333,20.4,20.4,23,0.00,,---,0.00,VWS V14.01,2013-02-17 19:11:00,
2013-02-17 14:16:00,29.3,-3.9,29.53,NNW,333,20.4,20.4,23,0.00,,---,0.00,VWS V14.01,2013-02-17 19:16:00,
2013-02-17 14:22:00,29.3,-3.9,29.53,NW,307,13.2,13.2,23,0.00,,---,0.00,VWS V14.01,2013-02-17 19:22:00,
2013-02-17 14:27:00,29.3,-3.9,29.53,NW,307,13.2,13.2,23,0.00,,---,0.00,VWS V14.01,2013-02-17 19:27:00,
2013-02-17 14:32:00,29.3,-3.9,29.56,NW,307,13.2,13.2,23,0.00,,---,0.00,VWS V14.01,2013-02-17 19:32:00,
2013-02-17 14:37:00,29.3,-3.9,29.56,NW,307,13.2,13.2,23,0.00,,---,0.00,VWS V14.01,2013-02-17 19:37:00,
2013-02-17 14:42:00,29.3,-3.9,29.56,NW,307,13.2,13.2,23,0.00,,---,0.00,VWS V14.01,2013-02-17 19:42:00,
2013-02-17 14:48:00,29.3,-3.9,29.56,NW,307,13.2,13.2,23,0.00,,---,0.00,VWS V14.01,2013-02-17 19:48:00,
2013-02-17 14:53:00,29.3,-3.9,29.56,NW,307,13.2,13.2,23,0.00,,---,0.00,VWS V14.01,2013-02-17 19:53:00,
2013-02-17 14:58:00,29.3,-3.9,29.56,NW,307,13.2,13.2,23,0.00,,---,0.00,VWS V14.01,2013-02-17 19:58:00,
2013-02-17 15:04:00,29.3,-3.9,29.56,NW,307,13.2,13.2,23,0.00,,---,0.00,VWS V14.01,2013-02-17 20:04:00,
2013-02-17 15:09:00,29.3,-3.9,29.56,NW,307,13.2,13.2,23,0.00,,---,0.00,VWS V14.01,2013-02-17 20:09:00,
2013-02-17 15:15:00,29.3,-3.9,29.56,NW,307,13.2,13.2,23,0.00,,---,0.00,VWS V14.01,2013-02-17 20:15:00,
2013-02-17 15:20:00,29.3,-3.9,29.56,NW,307,13.2,13.2,23,0.00,,---,0.00,VWS V14.01,2013-02-17 20:20:00,
2013-02-17 15:25:00,29.3,-3.9,29.56,NW,307,13.2,13.2,23,0.00,,---,0.00,VWS V14.01,2013-02-17 20:25:00,
2013-02-17 15:31:00,29.3,-3.9,29.56,NW,307,13.2,13.2,23,0.00,,---,0.00,VWS V14.01,2013-02-17 20:31:00,
2013-02-17 15:36:00,29.3,-3.9,29.56,NW,307,13.2,13.2,23,0.00,,---,0.00,VWS V14.01,2013-02-17 20:36:00,
2013-02-17 15:42:00,29.3,-3.9,29.56,NW,307,13.2,13.2,23,0.00,,---,0.00,VWS V14.01,2013-02-17 20:42:00,
2013-02-17 15:47:00,29.3,-3.9,29.56,NW,307,13.2,13.2,23,0.00,,---,0.00,VWS V14.01,2013-02-17 20:47:00,
2013-02-17 15:53:00,29.3,-3.9,29.56,NW,307,13.2,13.2,23,0.00,,---,0.00,VWS V14.01,2013-02-17 20:53:00,
2013-02-17 15:58:00,29.3,-3.9,29.56,NW,307,13.2,13.2,23,0.00,,---,0.00,VWS V14.01,2013-02-17 20:58:00,
2013-02-17 16:04:00,29.3,-3.9,29.59,NW,307,13.2,13.2,23,0.00,,---,0.00,VWS V14.01,2013-02-17 21:04:00,
2013-02-17 16:10:00,29.3,-3.9,29.59,NW,307,13.2,13.2,23,0.00,,---,0.00,VWS V14.01,2013-02-17 21:10:00,
2013-02-17 16:15:00,29.3,-3.9,29.59,NW,307,13.2,13.2,23,0.00,,---,0.00,VWS V14.01,2013-02-17 21:15:00,
2013-02-17 16:21:00,29.3,-3.9,29.59,NW,307,13.2,13.2,23,0.00,,---,0.00,VWS V14.01,2013-02-17 21:21:00,
2013-02-17 16:26:00,29.3,-3.9,29.59,NW,307,13.2,13.2,23,0.00,,---,0.00,VWS V14.01,2013-02-17 21:26:00,
2013-02-17 16:32:00,29.3,-3.9,29.59,NW,307,13.2,13.2,23,0.00,,---,0.00,VWS V14.01,2013-02-17 21:32:00,
2013-02-17 16:38:00,29.3,-3.9,29.59,West,280,10.0,10.0,23,0.00,,---,0.00,VWS V14.01,2013-02-17 21:38:00,
2013-02-17 16:43:00,29.3,-3.9,29.59,West,280,10.0,10.0,23,0.00,,---,0.00,VWS V14.01,2013-02-17 21:43:00,
2013-02-17 16:48:00,29.3,-3.9,29.62,WNW,294,9.3,9.3,23,0.00,,---,0.00,VWS V14.01,2013-02-17 21:48:00,